Weather History for Grafton, ND

Change the Weather History Date:

Sunday, March 3, 2013

  Actual Average Record
Temperature  
Mean Temperature 22 °F -  
Max Temperature 28 °F 28 °F 42 °F (1986)
Min Temperature 17 °F 8 °F -18 °F (2014)
Degree Days  
Heating Degree Days 42    
Moisture  
Dew Point 19 °F    
Average Humidity 82    
Maximum Humidity 93    
Minimum Humidity 64    
Precipitation  
Precipitation 0.00 in - - ()
Sea Level Pressure  
Sea Level Pressure 29.94 in    
Wind  
Wind Speed 11 mph (SE)    
Max Wind Speed 18 mph    
Max Gust Speed 21 mph    
Visibility 10 miles    
Events Snow    
Averages and records for this station are not official NWS values.
T = Trace of Precipitation, MM = Missing Value Source: NWS Daily Summary

Daily Weather History Graph

Daily Weather History Graph

Search for Another Location

Airport:

Trip Planner

Search our weather history database for the weather conditions in past years. The results will help you decide how hot, cold, wet, or windy it might be!

Date:

Astronomy

Mar. 03, 2013 Rise Set
Actual Time 7:06 AM CST 6:17 PM CST
Civil Twilight 6:35 AM CST 6:48 PM CST
Nautical Twilight 5:58 AM CST 7:24 PM CST
Astronomical Twilight 5:22 AM CST 8:01 PM CST
Moon 12:27 AM CST (3/3) 9:51 AM CST (3/3)
Length of Visible Light 12h 13m
Length of Day
11h 10m
Waning Gibbous, 63% of the Moon is Illuminated
Mar 3
Waning Gibbous
Mar 4
Last Quarter
Mar 11
New
Mar 19
First Quarter
Mar 27
Full

Hourly Weather History & Observations

Time (CST) Temp. Windchill Dew Point Humidity Pressure Visibility Wind Dir Wind Speed Gust Speed Precip Events Conditions
12:15 AM 21.2 °F 9.5 °F 17.6 °F 86% 30.04 in 10.0 mi South 11.5 mph - N/A   Overcast
12:35 AM 21.2 °F 10.9 °F 17.6 °F 86% 30.04 in 10.0 mi South 9.2 mph - N/A   Overcast
12:55 AM 21.2 °F 11.7 °F 17.6 °F 86% 30.04 in 10.0 mi South 8.1 mph - N/A   Overcast
1:15 AM 21.2 °F 11.7 °F 19.4 °F 93% 30.04 in 10.0 mi South 8.1 mph - N/A   Overcast
1:55 AM 21.2 °F 10.9 °F 19.4 °F 93% 30.03 in 10.0 mi South 9.2 mph - N/A   Overcast
2:15 AM 21.2 °F 10.9 °F 19.4 °F 93% 30.04 in 10.0 mi SSE 9.2 mph - N/A   Overcast
2:35 AM 21.2 °F 11.7 °F 19.4 °F 93% 30.03 in 10.0 mi SSE 8.1 mph - N/A   Overcast
2:55 AM 21.2 °F 11.7 °F 17.6 °F 86% 30.03 in 10.0 mi South 8.1 mph - N/A   Overcast
3:15 AM 21.2 °F 11.7 °F 17.6 °F 86% 30.02 in 10.0 mi SSE 8.1 mph - N/A   Overcast
3:35 AM 21.2 °F 12.6 °F 17.6 °F 86% 30.01 in 10.0 mi SSE 6.9 mph - N/A   Overcast
3:55 AM 21.2 °F 12.6 °F 17.6 °F 86% 30.01 in 10.0 mi SSE 6.9 mph - N/A   Overcast
4:15 AM 21.2 °F 12.6 °F 17.6 °F 86% 30.00 in 10.0 mi SSE 6.9 mph - N/A   Overcast
4:35 AM 21.2 °F 11.7 °F 17.6 °F 86% 30.00 in 10.0 mi SSE 8.1 mph - N/A   Overcast
4:55 AM 21.2 °F 10.9 °F 17.6 °F 86% 30.00 in 10.0 mi SE 9.2 mph - N/A   Overcast
5:15 AM 21.2 °F 10.9 °F 17.6 °F 86% 30.00 in 10.0 mi SE 9.2 mph - N/A   Overcast
5:35 AM 21.2 °F 10.9 °F 17.6 °F 86% 30.00 in 10.0 mi SSE 9.2 mph - N/A   Overcast
5:55 AM 21.2 °F 10.1 °F 17.6 °F 86% 30.00 in 10.0 mi SSE 10.4 mph - N/A   Overcast
6:15 AM 19.4 °F 7.2 °F 17.6 °F 93% 30.00 in 10.0 mi SSE 11.5 mph - N/A   Overcast
6:35 AM 19.4 °F 7.9 °F 17.6 °F 93% 29.99 in 10.0 mi SE 10.4 mph - N/A   Overcast
6:55 AM 19.4 °F 7.2 °F 17.6 °F 93% 29.99 in 10.0 mi SSE 11.5 mph - N/A   Overcast
7:15 AM 19.4 °F 6.6 °F 15.8 °F 86% 29.99 in 10.0 mi SE 12.7 mph - N/A   Overcast
7:35 AM 17.6 °F 4.3 °F 15.8 °F 93% 29.99 in 10.0 mi SSE 12.7 mph - N/A   Overcast
7:55 AM 17.6 °F 4.3 °F 14.0 °F 86% 29.98 in 10.0 mi SSE 12.7 mph - N/A   Overcast
8:15 AM 17.6 °F 4.3 °F 12.2 °F 79% 29.98 in 10.0 mi SSE 12.7 mph - N/A   Scattered Clouds
8:35 AM 17.6 °F 5.0 °F 12.2 °F 79% 29.98 in 10.0 mi SSE 11.5 mph - N/A   Clear
8:55 AM 17.6 °F 3.7 °F 12.2 °F 79% 29.97 in 10.0 mi SSE 13.8 mph - N/A   Clear
9:15 AM 19.4 °F 6.0 °F 14.0 °F 80% 29.97 in 10.0 mi SSE 13.8 mph - N/A   Clear
9:35 AM 19.4 °F 5.0 °F 14.0 °F 80% 29.97 in 10.0 mi SSE 16.1 mph - N/A   Clear
9:55 AM 21.2 °F 7.3 °F 15.8 °F 80% 29.97 in 10.0 mi SSE 16.1 mph 20.7 mph N/A   Mostly Cloudy
10:15 AM 23.0 °F 10.1 °F 17.6 °F 80% 29.97 in 9.0 mi SSE 15.0 mph - N/A   Overcast
10:35 AM 23.0 °F 11.1 °F 17.6 °F 80% 29.96 in 8.0 mi SSE 12.7 mph - N/A   Overcast
10:55 AM 23.0 °F 9.6 °F 17.6 °F 80% 29.96 in 9.0 mi SE 16.1 mph - N/A   Overcast
11:15 AM 23.0 °F 9.6 °F 17.6 °F 80% 29.96 in 10.0 mi SSE 16.1 mph - N/A   Overcast
11:35 AM 23.0 °F 10.1 °F 17.6 °F 80% 29.96 in 9.0 mi SSE 15.0 mph - N/A   Overcast
11:55 AM 24.8 °F 12.9 °F 19.4 °F 80% 29.95 in 9.0 mi SSE 13.8 mph - N/A   Overcast
12:15 PM 24.8 °F 13.4 °F 17.6 °F 74% 29.95 in 10.0 mi SSE 12.7 mph - N/A   Overcast
12:35 PM 24.8 °F 12.9 °F 19.4 °F 80% 29.94 in 10.0 mi SE 13.8 mph - N/A   Overcast
12:55 PM 24.8 °F 13.4 °F 19.4 °F 80% 29.94 in 10.0 mi SE 12.7 mph - N/A   Overcast
1:15 PM 24.8 °F 13.4 °F 19.4 °F 80% 29.93 in 10.0 mi SE 12.7 mph - N/A   Overcast
1:35 PM 24.8 °F 12.9 °F 19.4 °F 80% 29.92 in 10.0 mi SE 13.8 mph - N/A   Overcast
1:55 PM 26.6 °F 15.2 °F 21.2 °F 80% 29.91 in 10.0 mi SE 13.8 mph - N/A   Overcast
2:15 PM 26.6 °F 14.3 °F 21.2 °F 80% 29.90 in 10.0 mi SE 16.1 mph 19.6 mph N/A   Overcast
2:35 PM 26.6 °F 13.8 °F 21.2 °F 80% 29.89 in 10.0 mi SE 17.3 mph - N/A   Mostly Cloudy
2:55 PM 26.6 °F 15.2 °F 23.0 °F 86% 29.89 in 10.0 mi SE 13.8 mph - N/A   Overcast
3:15 PM 26.6 °F 13.4 °F 23.0 °F 86% 29.89 in 10.0 mi SE 18.4 mph - N/A   Overcast
3:35 PM 26.6 °F 15.2 °F 21.2 °F 80% 29.88 in 10.0 mi SE 13.8 mph - N/A   Overcast
3:55 PM 28.4 °F 17.5 °F 21.2 °F 74% 29.88 in 10.0 mi SE 13.8 mph - N/A   Overcast
4:15 PM 28.4 °F 19.1 °F 19.4 °F 69% 29.88 in 10.0 mi SE 10.4 mph - N/A   Overcast
4:35 PM 28.4 °F 19.7 °F 21.2 °F 74% 29.88 in 10.0 mi ESE 9.2 mph - N/A   Overcast
4:55 PM 28.4 °F 20.4 °F 19.4 °F 69% 29.88 in 10.0 mi SE 8.1 mph - N/A   Overcast
5:15 PM 28.4 °F 20.4 °F 21.2 °F 74% 29.88 in 10.0 mi ESE 8.1 mph - N/A   Overcast
5:35 PM 28.4 °F 19.7 °F 19.4 °F 69% 29.88 in 10.0 mi SE 9.2 mph - N/A   Overcast
5:55 PM 28.4 °F 21.2 °F 21.2 °F 74% 29.88 in 10.0 mi ESE 6.9 mph - N/A   Overcast
6:15 PM 28.4 °F 19.7 °F 23.0 °F 80% 29.88 in 10.0 mi East 9.2 mph - N/A   Overcast
6:35 PM 28.4 °F 22.2 °F 23.0 °F 80% 29.88 in 10.0 mi East 5.8 mph - N/A   Overcast
6:55 PM 28.4 °F 21.2 °F 23.0 °F 80% 29.88 in 10.0 mi ESE 6.9 mph - N/A   Mostly Cloudy
7:15 PM 28.4 °F 22.2 °F 23.0 °F 80% 29.88 in 10.0 mi ESE 5.8 mph - N/A   Mostly Cloudy
7:35 PM 28.4 °F 22.2 °F 23.0 °F 80% 29.89 in 10.0 mi ESE 5.8 mph - N/A   Mostly Cloudy
7:55 PM 26.6 °F 19.1 °F 23.0 °F 86% 29.89 in 10.0 mi East 6.9 mph - N/A   Mostly Cloudy
8:15 PM 28.4 °F 19.1 °F 17.6 °F 64% 29.88 in 10.0 mi East 10.4 mph 19.6 mph N/A   Mostly Cloudy
8:35 PM 28.4 °F 20.4 °F 19.4 °F 69% 29.89 in 10.0 mi SE 8.1 mph - N/A   Partly Cloudy
8:55 PM 28.4 °F 18.5 °F 19.4 °F 69% 29.89 in 10.0 mi SE 11.5 mph 19.6 mph N/A   Partly Cloudy
9:15 PM 28.4 °F 18.5 °F 19.4 °F 69% 29.89 in 10.0 mi SSE 11.5 mph 17.3 mph N/A   Scattered Clouds
9:35 PM 28.4 °F 19.7 °F 21.2 °F 74% 29.89 in 10.0 mi SSE 9.2 mph - N/A   Mostly Cloudy
9:55 PM 26.6 °F 18.2 °F 23.0 °F 86% 29.89 in 10.0 mi South 8.1 mph - N/A   Mostly Cloudy
10:15 PM 26.6 °F 17.5 °F 23.0 °F 86% 29.89 in 10.0 mi South 9.2 mph - N/A   Overcast
10:35 PM 26.6 °F 17.5 °F 23.0 °F 86% 29.89 in 10.0 mi South 9.2 mph - N/A   Overcast
10:55 PM 26.6 °F 15.7 °F 23.0 °F 86% 29.89 in 5.0 mi SSE 12.7 mph - N/A   Mostly Cloudy
11:15 PM 26.6 °F 14.7 °F 23.0 °F 86% 29.89 in 3.0 mi SE 15.0 mph - N/A   Overcast
11:35 PM 26.6 °F 16.2 °F 24.8 °F 93% 29.89 in 2.0 mi SE 11.5 mph - N/A Snow Light Snow
11:55 PM 26.6 °F 15.7 °F 24.8 °F 93% 29.89 in 1.5 mi SE 12.7 mph - N/A Snow Light Snow